Time,TemperatureF,DewpointF,PressureIn,WindDirection,WindDirectionDegrees,WindSpeedMPH,WindSpeedGustMPH,Humidity,HourlyPrecipIn,Conditions,Clouds,dailyrainin,SoftwareType,DateUTC
2013-07-31 00:02:00,65.0,59.0,30.12,SW,220,1.0,3.0,82,0.00,,,0.00,,2013-07-31 04:02:00,
2013-07-31 00:22:00,65.0,60.0,30.11,SW,217,2.0,3.0,83,0.00,,,0.00,,2013-07-31 04:22:00,
2013-07-31 00:32:00,65.0,60.0,30.11,SW,217,2.0,3.0,83,0.00,,,0.00,,2013-07-31 04:32:00,
2013-07-31 00:42:00,65.0,60.0,30.11,SW,217,2.0,3.0,84,0.00,,,0.00,,2013-07-31 04:42:00,
2013-07-31 00:52:00,65.0,60.0,30.11,SW,217,2.0,3.0,84,0.00,,,0.00,,2013-07-31 04:52:00,
2013-07-31 01:02:00,64.0,60.0,30.12,SW,217,2.0,3.0,86,0.00,,,0.00,,2013-07-31 05:02:00,
2013-07-31 01:22:00,63.0,60.0,30.11,SW,217,0.0,2.0,89,0.00,,,0.00,,2013-07-31 05:22:00,
2013-07-31 01:32:00,63.0,60.0,30.11,SW,217,1.0,1.0,89,0.00,,,0.00,,2013-07-31 05:32:00,
2013-07-31 01:42:00,62.0,59.0,30.11,SW,217,0.0,1.0,90,0.00,,,0.00,,2013-07-31 05:42:00,
2013-07-31 01:52:00,62.0,59.0,30.11,SW,217,0.0,0.0,91,0.00,,,0.00,,2013-07-31 05:52:00,
2013-07-31 02:02:00,62.0,60.0,30.11,SW,217,0.0,0.0,92,0.00,,,0.00,,2013-07-31 06:02:00,
2013-07-31 02:32:00,61.0,59.0,30.11,SW,217,0.0,0.0,93,0.00,,,0.00,,2013-07-31 06:32:00,
2013-07-31 02:43:00,61.0,59.0,30.11,SW,217,0.0,1.0,94,0.00,,,0.00,,2013-07-31 06:43:00,
2013-07-31 02:53:00,61.0,59.0,30.11,SW,217,0.0,1.0,93,0.00,,,0.00,,2013-07-31 06:53:00,
2013-07-31 03:02:00,61.0,59.0,30.10,SW,217,0.0,2.0,94,0.00,,,0.00,,2013-07-31 07:02:00,
2013-07-31 03:12:00,60.0,58.0,30.10,SW,217,0.0,1.0,94,0.00,,,0.00,,2013-07-31 07:12:00,
2013-07-31 03:22:00,60.0,58.0,30.10,SW,217,0.0,1.0,94,0.00,,,0.00,,2013-07-31 07:22:00,
2013-07-31 03:32:00,60.0,58.0,30.10,SW,217,0.0,0.0,94,0.00,,,0.00,,2013-07-31 07:32:00,
2013-07-31 03:43:00,60.0,59.0,30.10,SW,217,0.0,1.0,95,0.00,,,0.00,,2013-07-31 07:43:00,
2013-07-31 03:52:00,60.0,59.0,30.10,SW,216,0.0,3.0,95,0.00,,,0.00,,2013-07-31 07:52:00,
2013-07-31 04:02:00,60.0,59.0,30.10,SW,216,0.0,1.0,95,0.00,,,0.00,,2013-07-31 08:02:00,
2013-07-31 04:12:00,60.0,59.0,30.10,SW,216,0.0,1.0,95,0.00,,,0.00,,2013-07-31 08:12:00,
2013-07-31 04:32:00,60.0,59.0,30.10,SW,216,0.0,1.0,96,0.00,,,0.00,,2013-07-31 08:32:00,
2013-07-31 04:42:00,60.0,59.0,30.10,SW,216,0.0,1.0,96,0.00,,,0.00,,2013-07-31 08:42:00,
2013-07-31 04:53:00,60.0,59.0,30.10,SW,216,0.0,1.0,96,0.00,,,0.00,,2013-07-31 08:53:00,
2013-07-31 05:02:00,59.0,58.0,30.09,SW,216,0.0,1.0,96,0.00,,,0.00,,2013-07-31 09:02:00,
2013-07-31 05:52:00,59.0,58.0,30.10,SW,216,0.0,2.0,96,0.00,,,0.00,,2013-07-31 09:52:00,
2013-07-31 06:02:00,59.0,58.0,30.10,SW,216,0.0,2.0,97,0.00,,,0.00,,2013-07-31 10:02:00,
2013-07-31 06:52:00,59.0,58.0,30.10,SW,216,0.0,1.0,97,0.00,,,0.00,,2013-07-31 10:52:00,
2013-07-31 07:43:00,63.0,62.0,30.10,SW,216,0.0,1.0,98,0.00,,,0.00,,2013-07-31 11:43:00,
2013-07-31 07:52:00,63.0,62.0,30.10,SW,216,1.0,3.0,98,0.00,,,0.00,,2013-07-31 11:52:00,
2013-07-31 08:02:00,64.0,63.0,30.10,SW,216,1.0,2.0,98,0.00,,,0.00,,2013-07-31 12:02:00,
2013-07-31 08:43:00,68.0,66.0,30.10,SSW,202,2.0,4.0,93,0.00,,,0.00,,2013-07-31 12:43:00,
2013-07-31 09:02:00,68.0,65.0,30.10,SSW,207,2.0,4.0,90,0.00,,,0.00,,2013-07-31 13:02:00,
2013-07-31 09:33:00,70.0,65.0,30.10,SSW,205,0.0,4.0,85,0.00,,,0.00,,2013-07-31 13:33:00,
2013-07-31 09:43:00,71.0,66.0,30.10,SSW,207,3.0,7.0,84,0.00,,,0.00,,2013-07-31 13:43:00,
2013-07-31 10:34:00,73.0,66.0,30.09,SSW,211,1.0,3.0,79,0.00,,,0.00,,2013-07-31 14:34:00,
2013-07-31 10:43:00,74.0,67.0,30.09,South,174,0.0,4.0,80,0.00,,,0.00,,2013-07-31 14:43:00,
2013-07-31 10:53:00,74.0,68.0,30.10,NNE,17,2.0,6.0,81,0.00,,,0.00,,2013-07-31 14:53:00,
2013-07-31 11:02:00,73.0,67.0,30.09,ENE,61,2.0,8.0,82,0.00,,,0.00,,2013-07-31 15:02:00,
2013-07-31 11:12:00,73.0,67.0,30.09,SW,229,1.0,8.0,82,0.00,,,0.00,,2013-07-31 15:12:00,
2013-07-31 11:33:00,74.0,68.0,30.08,NNE,24,1.0,5.0,82,0.00,,,0.00,,2013-07-31 15:33:00,
2013-07-31 11:43:00,74.0,68.0,30.09,ENE,76,1.0,7.0,81,0.00,,,0.00,,2013-07-31 15:43:00,
2013-07-31 11:53:00,74.0,68.0,30.08,SW,219,1.0,5.0,81,0.00,,,0.00,,2013-07-31 15:53:00,
2013-07-31 12:02:00,74.0,67.0,30.07,NE,51,2.0,5.0,80,0.00,,,0.00,,2013-07-31 16:02:00,
2013-07-31 12:33:00,75.0,68.0,30.06,NNE,27,2.0,5.0,80,0.00,,,0.00,,2013-07-31 16:33:00,
2013-07-31 12:44:00,75.0,67.0,30.06,NE,40,2.0,6.0,77,0.00,,,0.00,,2013-07-31 16:44:00,
2013-07-31 12:52:00,75.0,67.0,30.06,ENE,67,2.0,7.0,76,0.00,,,0.00,,2013-07-31 16:52:00,
2013-07-31 13:03:00,75.0,66.0,30.05,NNE,17,2.0,5.0,74,0.00,,,0.00,,2013-07-31 17:03:00,
2013-07-31 13:13:00,75.0,66.0,30.05,ENE,71,3.0,5.0,73,0.00,,,0.00,,2013-07-31 17:13:00,
2013-07-31 13:33:00,75.0,65.0,30.05,ENE,64,2.0,8.0,71,0.00,,,0.00,,2013-07-31 17:33:00,
2013-07-31 13:43:00,76.0,65.0,30.05,ENE,57,3.0,7.0,70,0.00,,,0.00,,2013-07-31 17:43:00,
2013-07-31 13:53:00,76.0,65.0,30.05,ENE,63,3.0,5.0,70,0.00,,,0.00,,2013-07-31 17:53:00,
2013-07-31 14:02:00,76.0,65.0,30.04,NE,45,3.0,6.0,70,0.00,,,0.00,,2013-07-31 18:02:00,
2013-07-31 14:33:00,75.0,65.0,30.03,NE,49,2.0,6.0,70,0.00,,,0.00,,2013-07-31 18:33:00,
2013-07-31 14:52:00,75.0,65.0,30.03,ENE,62,3.0,7.0,71,0.00,,,0.00,,2013-07-31 18:52:00,
2013-07-31 15:03:00,76.0,66.0,30.02,ENE,58,2.0,6.0,72,0.00,,,0.00,,2013-07-31 19:03:00,
2013-07-31 15:43:00,74.0,66.0,30.02,ENE,65,4.0,7.0,75,0.00,,,0.00,,2013-07-31 19:43:00,
2013-07-31 15:53:00,73.0,65.0,30.01,NE,43,3.0,7.0,77,0.00,,,0.00,,2013-07-31 19:53:00,
2013-07-31 16:03:00,73.0,66.0,30.01,ENE,58,3.0,7.0,78,0.00,,,0.00,,2013-07-31 20:03:00,
2013-07-31 16:12:00,73.0,65.0,30.01,ENE,58,3.0,7.0,77,0.00,,,0.00,,2013-07-31 20:12:00,
2013-07-31 16:23:00,73.0,65.0,30.01,NE,38,3.0,6.0,77,0.00,,,0.00,,2013-07-31 20:23:00,
2013-07-31 16:43:00,73.0,65.0,30.00,ENE,61,3.0,5.0,77,0.00,,,0.00,,2013-07-31 20:43:00,
2013-07-31 16:52:00,73.0,65.0,30.00,ENE,67,2.0,4.0,77,0.00,,,0.00,,2013-07-31 20:52:00,
2013-07-31 17:02:00,75.0,67.0,30.00,ENE,74,4.0,8.0,77,0.00,,,0.00,,2013-07-31 21:02:00,
2013-07-31 18:02:00,74.0,64.0,29.98,East,83,3.0,5.0,72,0.00,,,0.00,,2013-07-31 22:02:00,
2013-07-31 18:33:00,73.0,65.0,29.97,ENE,74,4.0,8.0,76,0.00,,,0.00,,2013-07-31 22:33:00,
2013-07-31 18:53:00,72.0,65.0,29.96,East,87,1.0,5.0,78,0.00,,,0.00,,2013-07-31 22:53:00,
2013-07-31 19:02:00,72.0,65.0,29.96,ESE,107,2.0,5.0,78,0.00,,,0.00,,2013-07-31 23:02:00,
2013-07-31 19:12:00,72.0,65.0,29.96,East,96,1.0,2.0,80,0.00,,,0.00,,2013-07-31 23:12:00,
2013-07-31 19:22:00,72.0,66.0,29.96,ENE,66,1.0,3.0,81,0.00,,,0.00,,2013-07-31 23:22:00,
2013-07-31 19:32:00,72.0,66.0,29.96,ENE,65,1.0,4.0,81,0.00,,,0.00,,2013-07-31 23:32:00,
2013-07-31 19:42:00,72.0,67.0,29.96,ENE,65,1.0,3.0,83,0.00,,,0.00,,2013-07-31 23:42:00,
2013-07-31 19:52:00,71.0,66.0,29.95,ENE,65,1.0,3.0,83,0.00,,,0.00,,2013-07-31 23:52:00,
2013-07-31 20:03:00,71.0,65.0,29.95,ENE,65,1.0,3.0,82,0.00,,,0.00,,2013-08-01 00:03:00,
2013-07-31 20:22:00,71.0,66.0,29.95,ENE,65,0.0,1.0,84,0.00,,,0.00,,2013-08-01 00:22:00,
2013-07-31 20:32:00,70.0,65.0,29.95,ENE,65,0.0,1.0,85,0.00,,,0.00,,2013-08-01 00:32:00,
2013-07-31 20:43:00,70.0,66.0,29.94,ENE,65,2.0,3.0,86,0.00,,,0.00,,2013-08-01 00:43:00,
2013-07-31 20:52:00,70.0,66.0,29.94,ENE,71,1.0,4.0,86,0.00,,,0.00,,2013-08-01 00:52:00,
2013-07-31 21:03:00,69.0,65.0,29.94,East,79,1.0,3.0,87,0.00,,,0.00,,2013-08-01 01:03:00,
2013-07-31 21:12:00,69.0,65.0,29.94,East,84,1.0,3.0,86,0.00,,,0.00,,2013-08-01 01:12:00,
2013-07-31 21:22:00,69.0,65.0,29.94,East,83,1.0,5.0,87,0.00,,,0.00,,2013-08-01 01:22:00,
2013-07-31 21:33:00,69.0,65.0,29.94,East,83,1.0,3.0,87,0.00,,,0.00,,2013-08-01 01:33:00,
2013-07-31 21:43:00,69.0,65.0,29.94,East,80,1.0,3.0,87,0.00,,,0.00,,2013-08-01 01:43:00,
2013-07-31 21:53:00,69.0,65.0,29.94,East,80,1.0,2.0,87,0.00,,,0.00,,2013-08-01 01:53:00,
2013-07-31 22:02:00,69.0,65.0,29.94,East,80,0.0,2.0,87,0.00,,,0.00,,2013-08-01 02:02:00,
2013-07-31 22:52:00,69.0,65.0,29.92,East,87,0.0,2.0,88,0.00,,,0.00,,2013-08-01 02:52:00,
2013-07-31 23:32:00,68.0,65.0,29.90,ENE,76,0.0,2.0,91,0.00,,,0.00,,2013-08-01 03:32:00,
2013-07-31 23:53:00,68.0,65.0,29.90,ENE,77,2.0,4.0,91,0.00,,,0.00,,2013-08-01 03:53:00,